[[{"header":{"parameterUnit":"m.s-1","parameterCategory":1,"la1":30.2991,"la2":30.254,"lo1":-89.0895,"lo2":-89.0444,"dy":0.0017,"dx":0.0017,"nx":28,"ny":28,"refTime":"2025-07-10T21:00:00:Z","depth":0,"parameterNumber":2,"parameterNumberName":"U-component_of_WINDS"},"data":[0,0,0,0,0,0,0,0,0,0,0,0,0,0,0,0,0,0,0,0,0,0,0,0,0,0,0,0,0,0,0,0,0,0,0,0,0,0,0,0,0,0,0,0,0,0,0,0,0,0,0,0,0,0,0,0,0,0,1.4303,1.4305,0,1.4509,1.4511,1.4514,1.4605,1.4604,1.4604,1.4604,1.4818,1.4824,1.483,0,0,0,0,0,0,0,0,0,0,0,0,0,1.399,1.3996,1.4303,1.4305,1.4308,1.4509,1.4511,1.4514,1.4605,1.4604,1.4604,1.4604,1.4817,1.4824,1.4831,0,0,0,0,0,0,0,0,0,0,0,0,0,1.4154,1.3997,1.4302,1.4377,1.4386,1.4508,1.4511,1.4515,1.4605,1.4604,1.4604,1.4603,1.4814,1.4823,1.4832,1.4896,0,0,1.4859,1.4863,0,0,0,0,0,0,0,0,1.4145,1.4166,1.4364,1.4372,1.4382,1.4531,1.448,1.4643,1.4605,1.4522,1.4604,1.4603,1.4723,1.474,1.4779,1.4906,1.4915,1.486,1.4865,1.4869,1.4872,0,0,0,0,0,0,0,1.4133,1.4157,1.4384,1.4366,1.4378,1.4401,1.4424,1.4511,1.4623,1.4529,1.4536,1.4559,1.4728,1.4771,1.4785,1.4918,1.486,1.4868,1.4873,1.4877,1.5108,1.5109,0,0,0,0,0,0,1.4109,1.4147,1.4378,1.4391,1.426,1.4407,1.4433,1.4483,1.4622,1.4642,1.4559,1.4562,1.4755,1.4775,1.4793,1.4878,1.4869,1.4878,1.4883,1.5108,1.5108,1.5109,0,0,0,0,0,0,1.4102,1.4129,1.437,1.4271,1.4303,1.4413,1.4469,1.4488,1.453,1.4645,1.4665,1.4582,1.4756,1.478,1.4869,1.4886,1.4882,1.489,1.5107,1.5108,1.5109,1.5046,0,0,0,0,0,0,1.4093,1.4126,1.4151,1.4271,1.4308,1.4441,1.447,1.4492,1.4545,1.4551,1.4671,1.4691,1.4757,1.4856,1.4878,1.4899,1.4897,1.5106,1.5107,1.5108,1.5048,1.5045,1.5043,0,0,0,0,0,1.4081,1.4126,1.4151,1.4179,1.4341,1.4442,1.4464,1.4538,1.4546,1.4572,1.4646,1.4687,1.488,1.4864,1.489,1.4913,1.5105,1.5107,1.5108,1.5048,1.5046,1.5043,0,0,0,0,0,0,1.4006,1.4143,1.4173,1.4257,1.4337,1.4457,1.4493,1.4533,1.4614,1.4616,1.4707,1.4733,1.4814,1.4873,1.4852,1.4983,1.4996,1.5003,1.4942,1.494,1.4938,1.4923,1.4904,0,0,0,0,0,1.3999,1.4068,1.4185,1.4248,1.4286,1.4382,1.4429,1.4479,1.4567,1.4601,1.4681,1.4765,1.4845,1.4896,1.4976,1.5056,1.5084,1.5085,1.5083,1.5081,1.5086,1.5133,1.5135,1.5115,1.5115,1.5115,0,0,1.3986,1.4069,1.4108,1.4235,1.4303,1.4373,1.441,1.4484,1.4537,1.4613,1.4702,1.4763,1.4863,1.4947,1.4989,1.4999,1.5098,1.5083,1.508,1.5087,1.5135,1.5137,1.5139,1.5116,1.5116,1.5116,0,0,1.3998,1.4067,1.4128,1.4195,1.4297,1.436,1.4374,1.4488,1.4532,1.4622,1.468,1.4745,1.4881,1.4949,1.5002,1.5038,1.508,1.5062,1.5052,1.5097,1.5098,1.51,1.5114,1.5117,1.5067,1.5067,1.5067,0,1.3969,1.4077,1.4154,1.4224,1.4278,1.4348,1.4411,1.4472,1.4595,1.4632,1.464,1.4811,1.4884,1.4985,1.4994,1.5034,1.5054,1.5049,1.5091,1.5094,1.5097,1.5111,1.5116,1.5064,1.5064,1.5064,1.5065,0,1.4036,1.411,1.4147,1.4262,1.4321,1.4386,1.4474,1.4525,1.457,1.4632,1.4723,1.4812,1.491,1.4938,1.4984,1.5047,1.505,1.5074,1.5089,1.5095,1.5109,1.5115,1.506,1.5061,1.5062,1.5062,0,0,1.4008,1.4164,1.4176,1.4229,1.4347,1.4406,1.4475,1.457,1.4611,1.4694,1.4754,1.4867,1.4889,1.4949,1.5003,1.5042,1.5065,1.5062,1.5065,1.5059,1.5141,1.5122,1.5127,1.5093,1.5094,1.5095,1.5133,0,1.4036,1.4161,1.4232,1.4329,1.4399,1.4466,1.4526,1.4604,1.4665,1.4733,1.48,1.4878,1.4902,1.4939,1.498,1.5053,1.5083,1.5052,1.5151,1.5154,1.5125,1.5135,1.5116,1.5147,1.5139,1.514,1.5141,0,1.4086,1.4165,1.4268,1.4377,1.4409,1.4462,1.4555,1.4619,1.471,1.4751,1.4816,1.4869,1.4946,1.4954,1.5061,1.5038,1.5083,1.5125,1.5128,1.5141,1.5148,1.5148,1.5158,1.5163,1.515,1.5149,1.5149,0,1.4055,1.4188,1.4267,1.431,1.4439,1.4474,1.453,1.462,1.4673,1.4754,1.479,1.4879,1.4928,1.4997,1.5073,1.5072,1.5172,1.5187,1.5209,1.5207,1.5228,1.5226,1.5246,1.5256,1.5255,1.5255,1.5255,0,1.4079,1.414,1.4254,1.4303,1.4373,1.4454,1.4521,1.4582,1.4662,1.4724,1.4788,1.4845,1.4942,1.5011,1.5071,1.5151,1.5172,1.5208,1.5224,1.5203,1.5198,1.5234,1.5234,1.5257,1.5256,1.5256,1.5256,0,1.4057,1.4136,1.4226,1.434,1.437,1.4417,1.4515,1.4565,1.4628,1.4706,1.4729,1.4828,1.4913,1.4995,1.511,1.515,1.5229,1.525,1.5198,1.5207,1.5224,1.5222,1.5269,1.5279,1.528,1.528,1.528,0,1.4067,1.4115,1.4234,1.428,1.4333,1.4406,1.446,1.4542,1.4595,1.4702,1.4739,1.4828,1.4904,1.5037,1.512,1.5208,1.5231,1.5241,1.5245,1.5222,1.5232,1.5228,1.5233,1.5239,1.5239,1.5238,1.5238,0,1.4078,1.4114,1.4189,1.4277,1.4339,1.4412,1.4488,1.4522,1.4619,1.4676,1.4762,1.4821,1.4937,1.5025,1.5122,1.5181,1.5226,1.5236,1.5246,1.5226,1.5194,1.5212,1.5193,1.5235,1.5235,1.5235,1.5236,1.5236,1.4073,1.4119,1.4209,1.429,1.4355,1.4424,1.4477,1.4546,1.4619,1.4719,1.4763,1.4851,1.4941,1.5076,1.5133,1.5204,1.5215,1.5229,1.5233,1.5235,1.5231,1.5182,1.5222,1.5222,1.5222,1.5222,1.5222,0,1.4087,1.4148,1.4222,1.4325,1.4389,1.4424,1.451,1.4561,1.4637,1.4716,1.4789,1.4889,1.4974,1.5063,1.5154,1.5193,1.5216,1.5214,1.5213,1.5226,1.5215,1.5198,1.5194,1.5194,1.5194,1.5194,1.5194,1.5194,1.4102,1.4181,1.4228,1.434,1.4402,1.4487,1.4533,1.4598,1.4661,1.4769,1.484,1.4897,1.4981,1.5078,1.5158,1.5183,1.5213,1.5206,1.5236,1.5225,1.5226,1.5228,1.5212,1.5212,1.5212,1.524,1.5241,1.5241]},{"header":{"parameterUnit":"m.s-1","parameterCategory":1,"la1":30.2991,"la2":30.254,"lo1":-89.0895,"lo2":-89.0444,"dy":0.0017,"dx":0.0017,"nx":28,"ny":28,"refTime":"2025-07-10T21:00:00:Z","depth":0,"parameterNumber":3,"parameterNumberName":"V-component_of_WINDS"},"data":[0,0,0,0,0,0,0,0,0,0,0,0,0,0,0,0,0,0,0,0,0,0,0,0,0,0,0,0,0,0,0,0,0,0,0,0,0,0,0,0,0,0,0,0,0,0,0,0,0,0,0,0,0,0,0,0,0,0,3.9567,3.9567,0,3.956,3.956,3.956,3.956,3.956,3.956,3.9561,3.9552,3.9551,3.9551,0,0,0,0,0,0,0,0,0,0,0,0,0,3.9579,3.9579,3.9567,3.9567,3.9567,3.956,3.956,3.956,3.956,3.956,3.956,3.9561,3.9552,3.9551,3.9551,0,0,0,0,0,0,0,0,0,0,0,0,0,3.9573,3.9579,3.9567,3.9566,3.9566,3.956,3.956,3.956,3.956,3.956,3.956,3.9561,3.9552,3.9551,3.9551,3.9544,0,0,3.9549,3.9549,0,0,0,0,0,0,0,0,3.9574,3.9573,3.9566,3.9566,3.9566,3.9561,3.9561,3.9555,3.956,3.9562,3.9561,3.9561,3.9555,3.9554,3.9552,3.9544,3.9544,3.9549,3.9549,3.9549,3.9549,0,0,0,0,0,0,0,3.9574,3.9573,3.9564,3.9566,3.9566,3.9566,3.9565,3.956,3.9558,3.9562,3.9562,3.9561,3.9554,3.9553,3.9552,3.9544,3.9549,3.9549,3.9549,3.9548,3.9529,3.9529,0,0,0,0,0,0,3.9575,3.9573,3.9564,3.9564,3.957,3.9565,3.9565,3.9563,3.9558,3.9557,3.9561,3.9561,3.9553,3.9552,3.9552,3.9543,3.9549,3.9548,3.9548,3.9529,3.9529,3.9529,0,0,0,0,0,0,3.9575,3.9574,3.9565,3.9569,3.9567,3.9565,3.9563,3.9562,3.956,3.9557,3.9556,3.956,3.9553,3.9552,3.9546,3.9543,3.9548,3.9548,3.953,3.9529,3.9529,3.9527,0,0,0,0,0,0,3.9575,3.9574,3.9572,3.9569,3.9567,3.956,3.9562,3.9562,3.956,3.956,3.9556,3.9555,3.9554,3.9547,3.9546,3.9542,3.9547,3.953,3.9529,3.9529,3.9527,3.9527,3.9526,0,0,0,0,0,3.9576,3.9572,3.9572,3.9571,3.9565,3.956,3.9559,3.9558,3.956,3.9557,3.9555,3.9555,3.9544,3.9546,3.9545,3.9541,3.953,3.953,3.9529,3.9528,3.9527,3.9526,0,0,0,0,0,0,3.9574,3.9571,3.9572,3.9566,3.9563,3.956,3.9557,3.9557,3.9553,3.9554,3.9552,3.9551,3.9545,3.9542,3.9546,3.9535,3.9537,3.9536,3.9536,3.9536,3.9535,3.9536,3.9547,0,0,0,0,0,3.9573,3.957,3.9567,3.9563,3.9561,3.9559,3.9557,3.9557,3.9553,3.9552,3.9549,3.9546,3.9541,3.9538,3.9534,3.9527,3.9526,3.9524,3.9523,3.9523,3.9522,3.9518,3.9517,3.9527,3.9527,3.9527,0,0,3.9571,3.9569,3.9567,3.9563,3.956,3.9556,3.9558,3.9554,3.9551,3.9551,3.9545,3.9543,3.9539,3.9532,3.9529,3.953,3.9519,3.9522,3.9522,3.9521,3.9517,3.9516,3.9515,3.9527,3.9527,3.9527,0,0,3.9566,3.9564,3.956,3.9558,3.9554,3.9553,3.9552,3.9548,3.9547,3.9541,3.9541,3.9537,3.953,3.9526,3.9524,3.9516,3.9516,3.9515,3.9512,3.9507,3.9507,3.9506,3.9503,3.9502,3.9514,3.9514,3.9514,0,3.9564,3.9558,3.9558,3.9554,3.9551,3.9551,3.9547,3.9544,3.954,3.9538,3.9539,3.9529,3.9527,3.9519,3.9517,3.9515,3.9513,3.9515,3.9507,3.9506,3.9505,3.9502,3.9501,3.9514,3.9514,3.9514,3.9514,0,3.9556,3.9552,3.9549,3.9545,3.9542,3.9537,3.9536,3.9533,3.9532,3.9531,3.9524,3.9521,3.9516,3.9514,3.9513,3.9506,3.9506,3.9507,3.951,3.9504,3.9501,3.95,3.9514,3.9514,3.9514,3.9514,0,0,3.9549,3.9544,3.9543,3.9541,3.9537,3.9534,3.9529,3.9525,3.9522,3.9518,3.9514,3.9508,3.9508,3.9505,3.9504,3.95,3.9494,3.9502,3.9501,3.95,3.9485,3.9484,3.9483,3.9494,3.9494,3.9494,3.9485,0,3.9543,3.9535,3.9534,3.9527,3.9523,3.9523,3.9519,3.9516,3.9514,3.951,3.9507,3.9503,3.9504,3.9502,3.9499,3.9496,3.9491,3.9496,3.9489,3.9489,3.949,3.9482,3.9481,3.9473,3.9484,3.9484,3.9484,0,3.9534,3.9531,3.9524,3.952,3.9518,3.9515,3.951,3.9507,3.9502,3.9501,3.9498,3.9497,3.9491,3.9494,3.9486,3.9489,3.9486,3.9484,3.9484,3.9483,3.9486,3.948,3.9471,3.947,3.9482,3.9482,3.9483,0,3.953,3.9523,3.9518,3.9516,3.9512,3.9509,3.9507,3.9504,3.9501,3.9496,3.9494,3.9489,3.9486,3.9482,3.948,3.9482,3.9471,3.9474,3.947,3.947,3.9467,3.9468,3.9457,3.9466,3.9466,3.9466,3.9466,0,3.9523,3.9518,3.9516,3.9513,3.9507,3.9506,3.9501,3.9498,3.9495,3.9491,3.949,3.9486,3.9483,3.9478,3.9476,3.947,3.9468,3.9467,3.9466,3.9467,3.9467,3.9464,3.9465,3.9466,3.9466,3.9466,3.9466,0,3.9517,3.9515,3.951,3.9506,3.9505,3.9501,3.9497,3.9494,3.9492,3.9486,3.9485,3.9482,3.9476,3.9473,3.9466,3.9464,3.9457,3.9457,3.9458,3.9458,3.9454,3.9454,3.9441,3.9439,3.945,3.9449,3.9449,0,3.9513,3.9509,3.9505,3.9502,3.95,3.9496,3.9493,3.9492,3.9488,3.9483,3.948,3.9475,3.947,3.9461,3.9457,3.9451,3.9451,3.9447,3.945,3.945,3.945,3.9451,3.945,3.9446,3.9446,3.9446,3.9446,0,3.9505,3.9504,3.95,3.9496,3.9493,3.9489,3.9486,3.9483,3.9481,3.9477,3.9472,3.9468,3.9461,3.9455,3.9449,3.9446,3.9445,3.9445,3.9444,3.9444,3.9445,3.9444,3.9456,3.9445,3.9445,3.9445,3.9445,3.9446,3.9499,3.9496,3.9493,3.9488,3.9485,3.9482,3.9478,3.9476,3.9472,3.9466,3.9465,3.9459,3.9454,3.9446,3.9443,3.9437,3.9438,3.9436,3.9436,3.9435,3.9435,3.9446,3.9436,3.9436,3.9436,3.9436,3.9436,0,3.9491,3.9489,3.9485,3.948,3.9476,3.9477,3.9473,3.9469,3.9464,3.946,3.9456,3.9449,3.9443,3.9439,3.9433,3.9429,3.9429,3.9428,3.9428,3.9427,3.9435,3.9436,3.9428,3.9428,3.9428,3.9428,3.9428,3.9428,3.9487,3.9481,3.948,3.9472,3.947,3.9465,3.9462,3.9459,3.9455,3.9448,3.9444,3.9441,3.9437,3.943,3.9424,3.9423,3.9421,3.942,3.9418,3.9426,3.9427,3.9427,3.9429,3.9419,3.9419,3.9411,3.9411,3.9411]}]]